This demonstration page uses our WeatherBlox Daily Observations layout. Learn more.

Left ArrowRight Arrow

40.92945, -100.16068

Hourly Observations for June 16, 2016

Temp ( °F °C ) Dew Point ( °F °C ) Humidity (%) Winds ( mph kmh ) Pressure ( in mb ) Visibility ( mi km ) Precip ( " mm )
12:15 am 00:15 Clear 76 24.5 58 14.2 53 53 SSE 16 26 29.74 1007 10 16 N/A
12:35 am 00:35 Clear 75 24 57 13.7 53 53 SSE 13 20 29.74 1007 10 16 N/A
12:55 am 00:55 Clear 75 23.7 56 13.2 52 52 S 14 22 29.74 1007 10 16 N/A
1:15 am 01:15 Clear 74 23.2 55 12.9 52 52 SSE 13 20 29.74 1007 10 16 N/A
1:35 am 01:35 Clear 73 23 55 12.9 53 53 SSE 12 19 29.77 1008 10 16 N/A
1:55 am 01:55 Clear 73 22.6 55 12.9 54 54 SSE 9 15 29.77 1008 10 16 N/A
2:15 am 02:15 Clear 73 22.5 56 13.1 55 55 SSE 10 17 29.77 1008 10 16 N/A
2:35 am 02:35 Clear 72 22.3 56 13.3 57 57 SSE 10 17 29.77 1008 10 16 N/A
2:55 am 02:55 Clear 72 22 56 13.4 58 58 S 12 19 29.74 1007 10 16 N/A
3:15 am 03:15 Clear 71 21.6 56 13.5 60 60 SSE 8 13 29.77 1008 10 16 N/A
3:35 am 03:35 Clear 70 21.2 56 13.4 61 61 SSE 9 15 29.77 1008 10 16 N/A
3:55 am 03:55 Clear 70 21 56 13.2 61 61 SSE 8 13 29.77 1008 10 16 N/A
4:15 am 04:15 Clear 70 21 56 13.1 61 61 SSE 9 15 29.77 1008 10 16 N/A
4:35 am 04:35 Clear 69 20.5 56 13.2 63 63 SSE 9 15 29.77 1008 10 16 N/A
4:55 am 04:55 Clear 68 20.2 56 13.1 64 64 SSE 9 15 29.77 1008 10 16 N/A
5:15 am 05:15 Clear 67 19.5 56 13.3 68 68 S 8 13 29.74 1007 10 16 N/A
5:35 am 05:35 Clear 67 19.7 56 13.4 67 67 SSE 8 13 29.77 1008 10 16 N/A
5:55 am 05:55 Clear 68 20.1 56 13.5 66 66 SE 9 15 29.77 1008 10 16 N/A
6:15 am 06:15 Sunny 64 17.9 56 13.6 76 76 E 7 11 29.80 1009 10 16 N/A
6:35 am 06:35 Sunny 67 19.3 57 13.9 71 71 ESE 9 15 29.77 1008 10 16 N/A
6:55 am 06:55 Sunny 67 19.3 58 14.2 72 72 ESE 7 11 29.80 1009 10 16 N/A
7:15 am 07:15 Sunny 67 19.6 58 14.6 73 73 SE 7 11 29.77 1008 10 16 N/A
7:35 am 07:35 Sunny 69 20.5 60 15.4 73 73 ESE 8 13 29.77 1008 10 16 N/A
7:55 am 07:55 Sunny 70 21.2 61 16.1 73 73 SE 9 15 29.77 1008 10 16 N/A
8:15 am 08:15 Sunny 72 22.1 63 17 73 73 SSE 10 17 29.74 1007 10 16 N/A
8:35 am 08:35 Sunny 74 23.6 64 18 71 71 SSE 10 17 29.74 1007 10 16 N/A
8:55 am 08:55 Sunny 77 25 65 18.1 66 66 S 14 22 29.74 1007 10 16 N/A
9:15 am 09:15 Sunny 79 25.9 64 17.9 61 61 SSE 13 20 29.71 1006 10 16 N/A
9:35 am 09:35 Sunny 81 27 64 17.5 56 56 S 14 22 29.68 1005 10 16 N/A
9:55 am 09:55 Sunny 81 27.2 62 16.7 53 53 S 16 26 29.68 1005 10 16 N/A
10:15 am 10:15 Sunny 82 27.7 62 16.8 51 51 S 15 24 29.68 1005 10 16 N/A
10:35 am 10:35 Sunny 83 28.5 63 17 50 50 S 13 20 29.68 1005 10 16 N/A
10:55 am 10:55 Sunny 83 28.6 62 16.5 48 48 S 15 24 29.68 1005 10 16 N/A
11:15 am 11:15 Sunny 84 29.1 62 16.8 47 47 S 16 26 29.65 1004 10 16 N/A
11:35 am 11:35 Sunny 85 29.7 63 17 46 46 S 16 26 29.65 1004 10 16 N/A
11:55 am 11:55 Sunny 87 30.3 63 17.2 45 45 S 14 22 29.65 1004 10 16 N/A
12:15 pm 12:15 Sunny 87 30.6 62 16.8 43 43 SSE 18 30 29.65 1004 10 16 N/A
12:35 pm 12:35 Sunny 88 31.3 63 17.3 43 43 SSE 14 22 29.65 1004 10 16 N/A
12:55 pm 12:55 Sunny 89 31.8 62 16.5 40 40 SSE 16 26 29.65 1004 10 16 N/A
1:15 pm 13:15 Sunny 90 32.4 62 16.7 39 39 S 18 30 29.59 1002 10 16 N/A
1:40 pm 13:40 Sunny 92 33.2 61 16.2 36 36 SSE 23 37 29.59 1002 10 16 N/A
1:55 pm 13:55 Sunny 92 33.4 61 16.3 36 36 SSE 21 33 29.59 1002 10 16 N/A
2:15 pm 14:15 Sunny 92 33.5 61 16.2 35 35 SSE 20 31 29.59 1002 10 16 N/A
2:35 pm 14:35 Sunny 94 34.2 62 16.9 36 36 SSE 21 33 29.59 1002 10 16 N/A
2:55 pm 14:55 Sunny 94 34.6 62 16.8 35 35 SSE 20 31 29.59 1002 10 16 N/A
3:15 pm 15:15 Sunny 94 34.7 62 16.9 35 35 SSE 21 33 29.59 1002 10 16 N/A
3:35 pm 15:35 Sunny 95 35 62 16.7 34 34 SSE 20 31 29.59 1002 10 16 N/A
3:55 pm 15:55 Sunny 95 35.2 63 17.3 34 34 SSE 16 26 29.59 1002 10 16 N/A
4:15 pm 16:15 Sunny 96 35.3 62 16.6 33 33 SSE 20 31 29.59 1002 10 16 N/A
4:35 pm 16:35 Sunny 96 35.5 62 16.9 33 33 S 20 31 29.59 1002 10 16 N/A
4:55 pm 16:55 Sunny 96 35.7 62 16.9 33 33 S 18 30 29.53 1000 10 16 N/A
5:15 pm 17:15 Sunny 97 36 62 16.6 32 32 S 20 31 29.53 1000 10 16 N/A
5:35 pm 17:35 Sunny 97 36 62 16.6 32 32 SSE 20 31 29.53 1000 10 16 N/A
5:55 pm 17:55 Sunny 97 36 60 15.8 30 30 S 16 26 29.53 1000 10 16 N/A
6:15 pm 18:15 Sunny 97 35.9 58 14.6 28 28 S 18 30 29.53 1000 10 16 N/A
6:35 pm 18:35 Sunny 96 35.7 59 15 29 29 S 16 26 29.53 1000 10 16 N/A
6:55 pm 18:55 Sunny 96 35.3 60 15.4 30 30 SSE 12 19 29.56 1001 10 16 N/A
7:15 pm 19:15 Sunny 94 34.6 62 16.6 34 34 SSE 14 22 29.56 1001 10 16 N/A
7:35 pm 19:35 Sunny 93 34 62 16.5 35 35 S 13 20 29.59 1002 10 16 N/A
7:55 pm 19:55 Sunny 92 33.2 62 16.8 37 37 SSE 10 17 29.59 1002 10 16 N/A
8:15 pm 20:15 Sunny 90 32.3 64 17.5 41 41 SE 9 15 29.59 1002 10 16 N/A
8:35 pm 20:35 Sunny 88 31.1 65 18.1 46 46 ESE 8 13 29.62 1003 10 16 N/A
8:55 pm 20:55 Sunny 86 30 65 18.3 49 49 ESE 8 13 29.62 1003 10 16 N/A
9:15 pm 21:15 Clear 84 29.1 65 18.3 52 52 ESE 9 15 29.65 1004 10 16 N/A
9:35 pm 21:35 Clear 84 29.1 64 17.8 51 51 SE 9 15 29.65 1004 10 16 N/A
9:55 pm 21:55 Clear 83 28.6 64 18 53 53 ESE 8 13 29.68 1005 10 16 N/A
10:15 pm 22:15 Clear 83 28.1 65 18.3 55 55 SE 10 17 29.68 1005 10 16 N/A
10:35 pm 22:35 Clear 82 28 65 18.3 56 56 SSE 10 17 29.71 1006 10 16 N/A
10:55 pm 22:55 Clear 82 27.7 65 18.5 57 57 SE 10 17 29.71 1006 10 16 N/A
11:15 pm 23:15 Clear 81 27.4 66 18.7 59 59 SE 9 15 29.71 1006 10 16 N/A
11:35 pm 23:35 Clear 80 26.8 66 19 62 62 SSE 12 19 29.71 1006 10 16 N/A
11:55 pm 23:55 Clear 80 26.4 66 18.8 63 63 SSE 9 15 29.71 1006 10 16 N/A

Powered by AerisWeather